Location: LDNL
(36.4545°S, 141.6685°E)
Time: 11:41:05
(UTC+10:00)

Explorer 7 - Pass Details

Date: 14 August 2022
Orbit: 482 x 668 km, 50.3° (Epoch: 26 September)

Event Time Altitude Azimuth Distance (km) Brightness Sun altitude
Rises 17:40:18 0° 307° (NW) 3,005 12.4 2.7°
Reaches altitude 10° 17:42:39 10° 306° (NW) 2,099 11.6 2.3°
Maximum altitude 17:47:33 80° 218° (SW) 685 7.4 1.3°
Drops below altitude 10° 17:52:22 10° 131° (SE) 2,075 9.2 0.4°
Sets 17:54:42 0° 129° (SE) 2,969 9.9 0.0°
